Home   Weather   Strasbourg   Past weeks

Flag for France Past Weather in Strasbourg, Alsace, France — Yesterday and Last 2 Weeks

Now
64 °F

Mostly cloudy.


Feels Like: 64 °F
Forecast: 57 / 73 °F
Wind: 3 mph from West

Location: Strasbourg Airport

Current Time: May 25, 2017 at 1:29:42 am

Latest Report: May 25, 2017 at 12:30 am


Visibility: N/A

Pressure: 30.21 "Hg

Humidity: 73%

Dew Point: 55 °F

Location of StrasbourgLocation

Past Weather in Strasbourg — Graph

°F

Strasbourg Temperature Yesterday

Maximum temperature yesterday: 77 °F (at 5:00 pm)
Minimum temperature yesterday: 55 °F (at 6:00 am)
Average temperature yesterday: 68 °F

High & Low Weather Summary for the Past Weeks

 TemperatureHumidityPressure
High86 °F (May 17, 5:30 pm)100% (May 13, 11:00 pm)30.42 "Hg (May 13, 11:00 pm)
Low37 °F (May 10, 4:30 am)27% (May 17, 4:30 pm)29.47 "Hg (May 11, 7:30 pm)
Average62 °F69%30.04 "Hg
* Reported May 10 12:00 am — May 25 12:30 am, Strasbourg. Weather by CustomWeather, © 2017

Note: Actual official high and low records may vary slightly from our data, if they occured in-between our weather recording intervals... More about our weather records

Advertising

Strasbourg Weather History for the Previous 24 Hours

Scroll right to see more
 ConditionsComfort  
Time TempWeatherWind HumidityBarometerVisibility
12:30 am
Thu, May 25
64 °FMostly cloudy.3 mph73%30.21 "HgN/A
12:00 am66 °FMostly cloudy.1 mph68%30.21 "HgN/A
11:30 pm
Wed, May 24
68 °FClear.1 mph64%30.21 "Hg10 mi
11:00 pm68 °FPassing clouds.6 mph60%30.21 "HgN/A
10:30 pm70 °FMostly cloudy.3 mph57%30.21 "HgN/A
10:00 pm72 °FMostly cloudy.5 mph53%30.21 "HgN/A
9:30 pm72 °FMostly cloudy.5 mph53%30.18 "HgN/A
9:00 pm72 °FSunny.6 mph53%30.18 "Hg10 mi
8:30 pm73 °FPartly sunny.6 mph47%30.18 "HgN/A
8:00 pm73 °FScattered clouds.5 mph47%30.18 "HgN/A
7:30 pm75 °FPassing clouds.5 mph44%30.18 "HgN/A
7:00 pm75 °FPassing clouds.8 mph44%30.18 "HgN/A
6:30 pm75 °FPassing clouds.7 mph44%30.18 "HgN/A
6:00 pm75 °FSunny.8 mph41%30.18 "Hg10 mi
5:30 pm75 °FPassing clouds.7 mph41%30.18 "HgN/A
5:00 pm77 °FPassing clouds.8 mph39%30.21 "HgN/A
4:30 pm75 °FPassing clouds.8 mph41%30.21 "HgN/A
4:00 pm75 °FPassing clouds.7 mph44%30.21 "HgN/A
3:30 pm75 °FPassing clouds.7 mph41%30.21 "HgN/A
3:00 pm73 °FPassing clouds.10 mph44%30.21 "HgN/A
2:30 pm73 °FPassing clouds.9 mph41%30.21 "HgN/A
2:00 pm73 °FPassing clouds.6 mph41%30.24 "HgN/A
1:30 pm73 °FSunny.3 mph41%30.24 "Hg10 mi
1:00 pm72 °FPassing clouds.3 mph47%30.24 "HgN/A
12:30 pm72 °FPassing clouds.9 mph47%30.27 "HgN/A
12:00 pm70 °FSunny.5 mph50%30.27 "Hg10 mi
11:30 am68 °FPassing clouds.8 mph46%30.27 "HgN/A
11:00 am70 °FPassing clouds.6 mph43%30.27 "HgN/A
10:30 am68 °FSunny.5 mph46%30.27 "Hg10 mi
10:00 am68 °FSunny.2 mph46%30.27 "Hg10 mi
9:30 am66 °FSunny.2 mph49%30.27 "Hg10 mi
9:00 am66 °FScattered clouds.2 mph49%30.27 "HgN/A
8:30 am64 °FOvercast.3 mph56%30.27 "HgN/A
8:00 am64 °FScattered clouds.No wind64%30.27 "HgN/A
7:30 am61 °FSunny.3 mph68%30.24 "Hg10 mi
7:00 am59 °FSunny.3 mph72%30.24 "Hg10 mi
6:30 am55 °FSunny.3 mph77%30.24 "Hg10 mi
6:00 am55 °FSunny.2 mph82%30.24 "Hg10 mi
5:30 am57 °FClear.3 mph77%30.24 "Hg10 mi
5:00 am59 °FPassing clouds.3 mph68%30.24 "HgN/A
4:30 am59 °FPassing clouds.6 mph72%30.21 "HgN/A
4:00 am61 °FPassing clouds.7 mph72%30.21 "HgN/A
3:30 am61 °FClear.9 mph72%30.21 "Hg10 mi
3:00 am63 °FClear.8 mph68%30.21 "Hg10 mi
2:30 am63 °FPassing clouds.9 mph68%30.18 "HgN/A
2:00 am64 °FPassing clouds.9 mph64%30.18 "HgN/A
1:30 am64 °FPassing clouds.10 mph68%30.18 "HgN/A
1:00 am66 °FClear.10 mph64%30.18 "Hg10 mi
Weather by CustomWeather, © 2017

See weather overviewHow to use our weather pages